Погода в Гари

Погода в Гари : погода сейчас, прогноз погоды и архив. Всё, что Вы хотите узнать о погоде в Гари!

Поиск расширенной информации на нашем сайте:

Другие новости

Новости СМИ2

Главная страница сайта

Новости сайта

02.10.2013

Напоминаем, что на нашем новом сайте вы можете получить высокодетализированные прогнозы погоды по пунктам России, СНГ и мира (включающие важные для авиации метеовеличины, такие как направление и скорость ветра, видимость, явления погоды, количество и форма облачности, нижняя и верхняя граница облачности), а также ознакомиться с разнообразными материалами по авиационной метеорологии и подборкой полезных ссылок на эту тему.

Сайт Метеоцентр.Азия посвящён разработке технологий оптимизации авиаметеорологического обслуживания, включая проектирование и перспективное создание нескольких автоматизированных авиаметеорологических систем:
- система выпуска высокодетальных прогностических карт явлений погоды для нижнего воздушного пространства по России и ближнему зарубежью;
- система верификации прогнозов TAF (выпускаемых синоптиками официальных АМСГ РФ и ближнего зарубежья) и AUTOTAF (выпускаемых сайтом Метеоцентр.Азия) - выявление ошибок, онлайн-сопоставление с фактической погодой METAR, автоматическое внесение коррективов в прогнозы при резком отклонении фактической погоды от прогноза, подсчёт оправдываемости прогнозов по элементам и в целом;
- система обработки, анализа и отображения авиаметеорологической информации для применения провайдерами метеорологической информации.

Рекомендуем: Перевод и легализация днепропетровск www.poseidontour.com.ua.

Погода в Гари - сегодня

Время (UTC), дата Ветер
(°,м/с) 
Видим.   Явления Облачность Т
(°С)
Тd
(°С)
f(%) Тe
(°С)
Pmin
(гПа)
dP
(гПа)
Po
(мм)
O2
(г/м3)
Тmin Tmax R s Состояние
почвы
06 24.04.17 200 (Ю) 5{10}  20000 м    6/0 верхняя 
[Ci sp]
+8.1 -1.3 51 +7  1012.1  1.1  747  293           
09 24.04.17 240 (ЮЗ) 5{11}  20000 м    8/6 600 м верхняя 
[Cu med, cong|Ci fib]
+10.8 -4.5 34 +10  1012.6  0.7  748  290           
12 24.04.17 220 (ЮЗ) 4{10}  20000 м    10/0 средняя, верхняя 
[As trans|Cs]
+12.2 -5.3 29 +12  1011.9  -0.7  747  289           
15 24.04.17 180 (Ю) 6-10{12}  20000 м    10/0 средняя 
[Ac As]
+10.1 -2.9 40 +9  1012.1  0.1  747  291    +12.2       
18 24.04.17 150 (ЮВ) 5{10}  10 км  слаб. ливневой дождь  10/10 600 м кучево-дожд. 
[Cb cap]
+5.9 +4.5 91 +4  1012.5  0.2  747  294           
21 24.04.17 100 (В) 10 км  слаб. ливневой дождь  10/10 300 м кучево-дожд. 
[Cb cap]
+5.5 +4.3 92 +3  1008.3  -4.2  744  293           
00 25.04.17 130 (ЮВ) 6{12}  10 км  слаб. ливневой дождь  10/10 300 м кучево-дожд. 
[Cb cap]
+6.5 +5.4 93 +4  1004  -4.2  741  291           
03 25.04.17 140 (ЮВ) 6{13}  10 км  слаб. ливневой дождь  9/9 600 м кучево-дожд. 
[Cb cap]
+7.4 +6.3 93 +5  1000.9  -3  739  289  +5.1      мокрая 
06 25.04.17 180 (Ю) 6-10{10}  20000 м  {ливн. осадки}  9/9 600 м кучево-дожд. 
[Cb calv]
+10.1 +8.7 91 +9  1000.3  -0.3  739  285           
09 25.04.17 210 (ЮЗ) 10-16{16}  20000 м  в посл. час ливневой дождь  6/3 600 м кучево-дожд., средняя 
[Cb calv|Ac und]
+10.1 +7.4 83 +8  1003.1  2.7  741  287           
12 25.04.17 210 (ЮЗ) 10-16{18}  20000 м  {ливн. осадки}  8/4 600 м кучево-дожд., средняя 
[Cb calv|Ac und]
+10 +4.1 67 +8  1006.4  3.3  743  288           
15 25.04.17 220 (ЮЗ) 8-12{17}  20000 м    8/8 600 м 
[Sc]
+7.8 +1.4 64 +5  1010.6  3.9  746  292    +12.8     
18 25.04.17 200 (Ю) 6-10{14}  10 км    10/0 средняя 
[Ac und]
+5.7 +0 67 +3  1012.9  2.2  748  295           
21 25.04.17 200 (Ю) 5{12}  10 км    ясно 
+4.3 -1.1 68 +2  1014.2  1.1  749  297           
00 26.04.17 200 (Ю) 20000 м    ясно 
+1.3 -2.2 77 -1  1015.2  0.8  749  301           
03 26.04.17 250 (З) 20000 м    ясно 
+4.2 +0.5 77 +3  1016.6  1.6  750  298  +0.5        мокрая 
06 26.04.17 260 (З) 20000 м    9/9 600 м 
[Sc]
+6.4 +0.8 67 +5  1017.9  1.4  751  296           
09 26.04.17 310 (СЗ) 20000 м    9/9 600 м 
[Sc]
+7.1 -2.4 51 +5  1018.5  0.7  752  296           
12 26.04.17 340 (С) 20000 м    9/9 600 м 
[Sc]
+8 -2.1 49 +7  1019.3  0.7  752  295           
15 26.04.17 360 (С) 7{10}  20000 м    6/3 600 м кучево-дожд., верхняя 
[Cb calv|Ci fib]
+5.3 -2.8 56 +3  1020.2  0.8  753  298    +8       
18 26.04.17 020 (С) 10 км    ясно 
-0.2 -6.2 64 -2  1022.2  1.6  754  305           
21 26.04.17 330 (СЗ) 10 км    ясно 
-1 -9 55 -2  1023.3  1.1  755  306           
00 27.04.17 360 (С) 20000 м    8/0 средняя 
[Ac trans]
-4 -8.5 71 -6  1024.9  756  310           
03 27.04.17 тихо ()   20000 м    6/0 средняя 
[Ac trans]
-1 -4.2 79 -1  1024.9  0.6  756  306  -4        замёрзшая 
06 27.04.17 180 (Ю) 20000 м    4/0 верхняя 
[Ci fib]
+5.5 -2.9 55 +5  1024.3  -0.3  756  299           
Время (UTC), дата Ветер
(°,м/с) 
Видим.   Явления Облачность Т
(°С)
Тd
(°С)
f(%) Тe
(°С)
Pmin
(гПа)
dP
(гПа)
Po
(мм)
O2
(г/м3)
Тmin Tmax R s Состояние
почвы

Для получения пояснительной информации подведите курсор к названию столбца.

ПОГОДА в Гари - архив

Всё, что Вы хотите узнать о погоде в Гари - удобно и подробно!

Выберите нужную дату (начиная с 1 января 2015* года) и нажмите кнопку "Найти".
Будут отображены архивные сводки погоды по пункту Гари, начиная с указанной даты.


Отображать данные в формате CSV (для использования в таблицах Excel)


Внимание! Наш архив погоды предназначен исключительно для личного некоммерческого использования в познавательных целях. Если Вам необходимы официальные справки о состоянии погоды (для производственных, юридических, коммерческих и т.п. целей), обращайтесь в органы Росгидромета.

*Примечание: данная дата относится к архиву по метеостанциям СССР (Россия, СНГ, Балтия).
Архив по метеостанциям Зарубежной Европы и Азии (кроме Китая) хранится 10 дней, по другим регионам земного шара (Китай, Африка, Америка, Австралия, Океания) - 1 день.

Гари - район местоположения метеостанции


Название, широта, долгота, высота метеостанции:
Гари 59.4°ш. 62.3°д. 131 м над ур. моря [Российская Федерация]

Дополнительная информация

В oтличие oт бoльшинства пoгoдных сайтoв мы публикуем пoдрoбную метеoинфoрмацию в детальнoм прoфессиoнальнoм фoрмате.

Характеристики температуры и влажнoсти вoздуха измеряются на высoте 2 м в тени вдали oт зданий и деревьев.
Скoрoсть ветра измеряется на высoте 10 м (на урoвне рoста челoвека скoрoсть ветра ниже в 1.5-2 раза). Если метеoстанция нахoдится в гoрoде или в лесу, тo скoрoсть ветра занижена на 2-4 м/с пo сравнению с oткрытым местoм. Скoрoсть ветра над акватoриями крупных рек и oзёр, а также на вершинах хoлмoв на 2-5 м/с выше, чем в oбычных услoвиях.
Атмoсфернoе давление в разных тoчках местнoсти мoжет значительнo oтличаться oт давления на метеoстанции, в зависимoсти oт услoвий рельефа (при пoдъёме на 10 м давление пoнижается примернo на 1 мм рт.ст.).